TimeEDT,TemperatureF,Dew PointF,Humidity,Sea Level PressureIn,VisibilityMPH,Wind Direction,Wind SpeedMPH,Gust SpeedMPH,PrecipitationIn,Events,Conditions,WindDirDegrees,DateUTC
12:15 AM,50.0,32.0,50,30.04,10.0,NW,5.8,-,N/A,,Clear,310,2013-04-02 04:15:00
12:35 AM,50.0,32.0,50,30.05,10.0,NW,5.8,-,N/A,,Clear,310,2013-04-02 04:35:00
12:55 AM,50.0,32.0,50,30.05,10.0,NW,4.6,-,N/A,,Clear,310,2013-04-02 04:55:00
1:15 AM,48.2,32.0,54,30.05,10.0,NW,4.6,-,N/A,,Clear,310,2013-04-02 05:15:00
1:35 AM,48.2,32.0,54,30.05,10.0,NW,4.6,-,N/A,,Clear,310,2013-04-02 05:35:00
1:55 AM,48.2,32.0,54,30.05,10.0,WNW,4.6,-,N/A,,Clear,300,2013-04-02 05:55:00
2:15 AM,46.4,32.0,57,30.05,10.0,NW,5.8,-,N/A,,Clear,310,2013-04-02 06:15:00
2:35 AM,48.2,32.0,54,30.06,10.0,NW,5.8,-,N/A,,Clear,310,2013-04-02 06:35:00
2:55 AM,46.4,32.0,57,30.05,10.0,NW,5.8,-,N/A,,Clear,310,2013-04-02 06:55:00
3:15 AM,46.4,32.0,57,30.06,10.0,WNW,5.8,-,N/A,,Clear,300,2013-04-02 07:15:00
3:35 AM,44.6,32.0,61,30.05,10.0,NW,5.8,-,N/A,,Clear,310,2013-04-02 07:35:00
3:55 AM,44.6,32.0,61,30.06,10.0,WNW,4.6,-,N/A,,Clear,300,2013-04-02 07:55:00
4:15 AM,44.6,30.2,57,30.06,10.0,WNW,5.8,-,N/A,,Clear,300,2013-04-02 08:15:00
4:35 AM,44.6,32.0,61,30.07,10.0,WNW,4.6,-,N/A,,Clear,300,2013-04-02 08:35:00
4:55 AM,44.6,32.0,61,30.07,10.0,WNW,5.8,-,N/A,,Clear,300,2013-04-02 08:55:00
5:15 AM,44.6,32.0,61,30.07,10.0,WNW,6.9,-,N/A,,Clear,300,2013-04-02 09:15:00
5:35 AM,42.8,32.0,66,30.08,10.0,WNW,5.8,-,N/A,,Clear,300,2013-04-02 09:35:00
5:55 AM,42.8,32.0,66,30.09,10.0,NW,4.6,-,N/A,,Clear,310,2013-04-02 09:55:00
6:15 AM,41.0,32.0,70,30.11,10.0,WNW,4.6,-,N/A,,Clear,300,2013-04-02 10:15:00
6:35 AM,42.8,32.0,66,30.11,10.0,NW,4.6,-,N/A,,Clear,310,2013-04-02 10:35:00
6:55 AM,42.8,32.0,66,30.13,10.0,WNW,4.6,-,N/A,,Clear,300,2013-04-02 10:55:00
7:15 AM,41.0,32.0,70,30.12,10.0,NW,4.6,-,N/A,,Clear,310,2013-04-02 11:15:00
7:35 AM,41.0,30.2,65,30.13,10.0,NW,4.6,-,N/A,,Clear,310,2013-04-02 11:35:00
7:55 AM,41.0,30.2,65,30.14,10.0,WNW,5.8,-,N/A,,Clear,300,2013-04-02 11:55:00
8:15 AM,42.8,30.2,61,30.15,10.0,WNW,4.6,-,N/A,,Clear,300,2013-04-02 12:15:00
8:35 AM,42.8,28.4,57,30.16,10.0,WNW,5.8,-,N/A,,Clear,300,2013-04-02 12:35:00
8:55 AM,44.6,28.4,53,30.16,10.0,NW,4.6,-,N/A,,Clear,310,2013-04-02 12:55:00
9:15 AM,46.4,24.8,43,30.17,10.0,NW,4.6,-,N/A,,Clear,310,2013-04-02 13:15:00
9:35 AM,48.2,23.0,37,30.16,10.0,NW,3.5,-,N/A,,Clear,320,2013-04-02 13:35:00
9:55 AM,50.0,19.4,30,30.17,10.0,NW,3.5,-,N/A,,Clear,320,2013-04-02 13:55:00
10:35 AM,53.6,14.0,21,30.18,10.0,WNW,4.6,-,N/A,,Clear,300,2013-04-02 14:35:00
10:55 AM,53.6,10.4,18,30.18,10.0,NW,3.5,-,N/A,,Clear,320,2013-04-02 14:55:00
11:15 AM,55.4,8.6,15,30.18,10.0,Calm,Calm,-,N/A,,Clear,0,2013-04-02 15:15:00
11:35 AM,57.2,6.8,13,30.19,10.0,NW,4.6,-,N/A,,Scattered Clouds,320,2013-04-02 15:35:00
11:55 AM,59.0,3.2,11,30.18,10.0,NW,4.6,-,N/A,,Scattered Clouds,320,2013-04-02 15:55:00
12:15 PM,57.2,3.2,11,30.18,10.0,WNW,3.5,-,N/A,,Mostly Cloudy,300,2013-04-02 16:15:00
12:35 PM,59.0,3.2,11,30.18,10.0,WNW,4.6,-,N/A,,Mostly Cloudy,290,2013-04-02 16:35:00
12:55 PM,57.2,-4.0,8,30.17,10.0,NW,5.8,-,N/A,,Mostly Cloudy,310,2013-04-02 16:55:00
1:15 PM,59.0,-5.8,7,30.16,10.0,WNW,4.6,-,N/A,,Overcast,300,2013-04-02 17:15:00
1:35 PM,59.0,-5.8,7,30.16,10.0,NW,9.2,-,N/A,,Scattered Clouds,310,2013-04-02 17:35:00
1:55 PM,60.8,-11.2,5,30.15,10.0,NW,8.1,-,N/A,,Clear,310,2013-04-02 17:55:00
2:15 PM,60.8,-16.6,4,30.14,10.0,West,3.5,-,N/A,,Scattered Clouds,270,2013-04-02 18:15:00
2:35 PM,60.8,-23.8,4,30.14,10.0,West,5.8,-,N/A,,Scattered Clouds,270,2013-04-02 18:35:00
2:55 PM,62.6,-22.0,4,30.14,10.0,WNW,6.9,17.3,N/A,,Scattered Clouds,290,2013-04-02 18:55:00
3:15 PM,62.6,-18.4,4,30.13,10.0,WNW,8.1,-,N/A,,Scattered Clouds,290,2013-04-02 19:15:00
3:35 PM,62.6,-18.4,4,30.12,10.0,WNW,5.8,-,N/A,,Scattered Clouds,290,2013-04-02 19:35:00
3:55 PM,-9999,-9999,N/A,30.12,10.0,WNW,10.4,16.1,N/A,,Mostly Cloudy,300,2013-04-02 19:55:00
4:15 PM,60.8,-31.0,4,30.12,10.0,West,5.8,-,N/A,,Overcast,270,2013-04-02 20:15:00
4:35 PM,62.6,-31.0,4,30.11,10.0,NW,6.9,-,N/A,,Scattered Clouds,310,2013-04-02 20:35:00
4:55 PM,59.0,-9.4,6,30.12,10.0,WNW,4.6,-,N/A,,Scattered Clouds,290,2013-04-02 20:55:00
5:15 PM,60.8,-4.0,7,30.11,10.0,WNW,5.8,-,N/A,,Scattered Clouds,300,2013-04-02 21:15:00
5:35 PM,59.0,1.4,10,30.12,10.0,WNW,6.9,-,N/A,,Mostly Cloudy,290,2013-04-02 21:35:00
5:55 PM,59.0,1.4,10,30.11,10.0,WNW,6.9,-,N/A,,Mostly Cloudy,300,2013-04-02 21:55:00
6:15 PM,57.2,5.0,12,30.12,10.0,WNW,8.1,-,N/A,,Scattered Clouds,300,2013-04-02 22:15:00
6:35 PM,57.2,5.0,12,30.13,10.0,WNW,9.2,-,N/A,,Scattered Clouds,300,2013-04-02 22:35:00
6:55 PM,55.4,8.6,15,30.13,10.0,WNW,6.9,-,N/A,,Clear,290,2013-04-02 22:55:00
7:15 PM,55.4,10.4,17,30.14,10.0,NW,6.9,-,N/A,,Clear,310,2013-04-02 23:15:00
7:35 PM,53.6,14.0,21,30.13,10.0,Calm,Calm,-,N/A,,Mostly Cloudy,0,2013-04-02 23:35:00
7:55 PM,53.6,14.0,21,30.14,10.0,WNW,3.5,-,N/A,,Overcast,290,2013-04-02 23:55:00
8:15 PM,51.8,15.8,24,30.14,10.0,WNW,5.8,-,N/A,,Mostly Cloudy,290,2013-04-03 00:15:00
8:35 PM,51.8,17.6,26,30.14,10.0,West,3.5,-,N/A,,Mostly Cloudy,280,2013-04-03 00:35:00
8:55 PM,51.8,14.0,22,30.14,10.0,WNW,3.5,-,N/A,,Mostly Cloudy,300,2013-04-03 00:55:00
9:15 PM,51.8,15.8,24,30.14,10.0,NW,3.5,-,N/A,,Mostly Cloudy,320,2013-04-03 01:15:00
9:35 PM,51.8,17.6,26,30.14,10.0,Calm,Calm,-,N/A,,Mostly Cloudy,0,2013-04-03 01:35:00
9:55 PM,50.0,14.0,24,30.15,10.0,Calm,Calm,-,N/A,,Mostly Cloudy,0,2013-04-03 01:55:00
10:15 PM,50.0,19.4,30,30.15,10.0,NW,3.5,-,N/A,,Overcast,310,2013-04-03 02:15:00
10:35 PM,51.8,10.4,19,30.16,10.0,Calm,Calm,-,N/A,,Overcast,0,2013-04-03 02:35:00
10:55 PM,50.0,15.8,26,30.16,10.0,Calm,Calm,-,N/A,,Overcast,0,2013-04-03 02:55:00
11:15 PM,50.0,19.4,30,30.16,10.0,NW,3.5,-,N/A,,Overcast,310,2013-04-03 03:15:00
11:35 PM,50.0,19.4,30,30.16,10.0,NW,4.6,-,N/A,,Overcast,310,2013-04-03 03:35:00
11:55 PM,50.0,21.2,32,30.16,10.0,WNW,4.6,-,N/A,,Overcast,300,2013-04-03 03:55:00